Location: City of Moscow
(46.7306°N, 116.9989°W)
Time: 07:48:02
(UTC+00:00)

USA 234 - Pass Details

Date: 11 March 2026
Orbit: 1102 x 1106 km, 123.0° (Epoch: 4 January)

Event Time Altitude Azimuth Distance (km) Brightness Sun altitude
Exits shadow 06:44:52 18° 284° (WNW) 2,443 5.3 -44.1°
Drops below altitude 10° 06:46:35 10° 294° (WNW) 2,967 5.9 -44.2°
Sets 06:49:23 0° 304° (WNW) 3,929 6.8 -44.4°
